Weather History for Greensboro, GA

Change the Weather History Date:

Tuesday, December 4, 2012

  Actual Average (KDBN) Record (KDBN)
Temperature  
Mean Temperature 63 °F -  
Max Temperature 71 °F 63 °F 82 °F (1982)
Min Temperature 55 °F 35 °F 18 °F (1979)
Degree Days  
Heating Degree Days 2    
Growing Degree Days 13 (Base 50)    
Moisture  
Dew Point 54 °F    
Average Humidity 77    
Maximum Humidity 100    
Minimum Humidity 53    
Precipitation  
Precipitation 0.00 in - - ()
Sea Level Pressure  
Sea Level Pressure 30.24 in    
Wind  
Wind Speed 2 mph (South)    
Max Wind Speed 9 mph    
Max Gust Speed -    
Visibility 10 miles    
Events      
Averages and records for this station are not official NWS values.
T = Trace of Precipitation, MM = Missing Value Source: NWS Daily Summary

Daily Weather History Graph

Daily Weather History Graph

Search for Another Location

Airport:

Trip Planner

Search our weather history database for the weather conditions in past years. The results will help you decide how hot, cold, wet, or windy it might be!

Date:

Astronomy

Dec. 04, 2012 Rise Set
Actual Time 7:21 AM EST 5:24 PM EST
Civil Twilight 6:54 AM EST 5:51 PM EST
Nautical Twilight 6:23 AM EST 6:22 PM EST
Astronomical Twilight 5:53 AM EST 6:52 PM EST
Moon 10:59 PM EST (12/4) 11:25 AM EST (12/4)
Length of Visible Light 10h 56m
Length of Day
10h 02m
Waning Gibbous, 69% of the Moon is Illuminated
Dec 4
Waning Gibbous
Dec 6
Last Quarter
Dec 13
New
Dec 20
First Quarter
Dec 28
Full

Hourly Weather History & Observations

Time (EST) Temp. Dew Point Humidity Pressure Visibility Wind Dir Wind Speed Gust Speed Precip Events Conditions
12:15 AM 59.0 °F 51.8 °F 77% 30.25 in 10.0 mi Calm Calm - N/A   Overcast
12:35 AM 59.0 °F 51.8 °F 77% 30.25 in 10.0 mi SSE 3.5 mph - N/A   Overcast
12:55 AM 59.0 °F 51.8 °F 77% 30.24 in 10.0 mi SSE 4.6 mph - N/A   Overcast
1:15 AM 59.0 °F 51.8 °F 77% 30.24 in 10.0 mi Calm Calm - N/A   Overcast
1:35 AM 59.0 °F 51.8 °F 77% 30.24 in 10.0 mi SE 3.5 mph - N/A   Overcast
1:55 AM 59.0 °F 51.8 °F 77% 30.24 in 10.0 mi SE 4.6 mph - N/A   Overcast
2:15 AM 59.0 °F 51.8 °F 77% 30.24 in 10.0 mi SE 4.6 mph - N/A   Overcast
2:35 AM 59.0 °F 53.6 °F 82% 30.24 in 10.0 mi SSE 3.5 mph - N/A   Overcast
2:55 AM 59.0 °F 53.6 °F 82% 30.24 in 10.0 mi SE 4.6 mph - N/A   Overcast
3:15 AM 57.2 °F 53.6 °F 88% 30.24 in 10.0 mi SE 3.5 mph - N/A   Overcast
3:55 AM 57.2 °F 53.6 °F 88% 30.25 in 10.0 mi Calm Calm - N/A   Overcast
4:15 AM 55.4 °F 53.6 °F 94% 30.25 in 10.0 mi Calm Calm - N/A   Mostly Cloudy
4:35 AM 55.4 °F 53.6 °F 94% 30.25 in 10.0 mi Calm Calm - N/A   Mostly Cloudy
4:55 AM 55.4 °F 53.6 °F 94% 30.25 in 10.0 mi Calm Calm - N/A   Mostly Cloudy
5:15 AM 55.4 °F 53.6 °F 94% 30.25 in 10.0 mi SSE 3.5 mph - N/A   Overcast
5:35 AM 55.4 °F 53.6 °F 94% 30.25 in 10.0 mi Calm Calm - N/A   Overcast
5:55 AM 55.4 °F 53.6 °F 94% 30.25 in 10.0 mi Calm Calm - N/A   Overcast
6:15 AM 55.4 °F 53.6 °F 94% 30.26 in 10.0 mi Calm Calm - N/A   Overcast
6:35 AM 55.4 °F 53.6 °F 94% 30.26 in 10.0 mi Calm Calm - N/A   Overcast
6:55 AM 55.4 °F 53.6 °F 94% 30.27 in 10.0 mi Calm Calm - N/A   Overcast
7:15 AM 55.4 °F 53.6 °F 94% 30.28 in 7.0 mi Calm Calm - N/A   Overcast
7:35 AM 55.4 °F 53.6 °F 94% 30.29 in 7.0 mi Calm Calm - N/A   Overcast
7:55 AM 55.4 °F 53.6 °F 94% 30.29 in 7.0 mi Calm Calm - N/A   Overcast
8:15 AM 55.4 °F 55.4 °F 100% 30.29 in 5.0 mi Calm Calm - N/A   Overcast
8:35 AM 55.4 °F 55.4 °F 100% 30.30 in 5.0 mi Calm Calm - N/A   Overcast
8:55 AM 57.2 °F 55.4 °F 94% 30.30 in 7.0 mi Calm Calm - N/A   Overcast
9:15 AM 59.0 °F 57.2 °F 94% 30.31 in 10.0 mi Calm Calm - N/A   Mostly Cloudy
9:35 AM 59.0 °F 55.4 °F 88% 30.31 in 10.0 mi Calm Calm - N/A   Mostly Cloudy
9:55 AM 60.8 °F 57.2 °F 88% 30.32 in 10.0 mi South 4.6 mph - N/A   Overcast
10:15 AM 62.6 °F 59.0 °F 88% 30.32 in 10.0 mi Calm Calm - N/A   Scattered Clouds
10:35 AM 64.4 °F 59.0 °F 83% 30.32 in 10.0 mi South 3.5 mph - N/A   Clear
10:55 AM 66.2 °F 59.0 °F 78% 30.31 in 10.0 mi SSW 5.8 mph - N/A   Clear
11:15 AM 68.0 °F 59.0 °F 73% 30.30 in 10.0 mi SW 5.8 mph - N/A   Clear
11:35 AM 69.8 °F 59.0 °F 68% 30.30 in 10.0 mi SW 5.8 mph - N/A   Scattered Clouds
11:55 AM 69.8 °F 59.0 °F 68% 30.28 in 10.0 mi SW 8.1 mph - N/A   Scattered Clouds
12:15 PM 69.8 °F 59.0 °F 68% 30.27 in 10.0 mi SSW 8.1 mph - N/A   Clear
12:35 PM 69.8 °F 59.0 °F 68% 30.25 in 10.0 mi SSW 9.2 mph - N/A   Scattered Clouds
1:15 PM 69.8 °F 59.0 °F 68% 30.24 in 10.0 mi SW 5.8 mph - N/A   Overcast
1:35 PM 71.6 °F 59.0 °F 64% 30.23 in 10.0 mi SW 6.9 mph - N/A   Mostly Cloudy
1:55 PM 71.6 °F 57.2 °F 60% 30.22 in 10.0 mi SW 4.6 mph - N/A   Mostly Cloudy
2:15 PM 71.6 °F 55.4 °F 57% 30.21 in 10.0 mi SSW 5.8 mph - N/A   Mostly Cloudy
2:35 PM 71.6 °F 53.6 °F 53% 30.20 in 10.0 mi South 8.1 mph - N/A   Mostly Cloudy
2:55 PM 71.6 °F 55.4 °F 57% 30.20 in 10.0 mi South 5.8 mph - N/A   Mostly Cloudy
3:15 PM 71.6 °F 55.4 °F 57% 30.20 in 10.0 mi South 6.9 mph - N/A   Scattered Clouds
3:35 PM 71.6 °F 55.4 °F 57% 30.20 in 10.0 mi South 5.8 mph - N/A   Scattered Clouds
3:55 PM 71.6 °F 53.6 °F 53% 30.20 in 10.0 mi South 4.6 mph - N/A   Scattered Clouds
4:15 PM 71.6 °F 53.6 °F 53% 30.20 in 10.0 mi South 5.8 mph - N/A   Scattered Clouds
4:35 PM 71.6 °F 53.6 °F 53% 30.19 in 10.0 mi South 5.8 mph - N/A   Mostly Cloudy
4:55 PM 69.8 °F 51.8 °F 53% 30.19 in 10.0 mi South 3.5 mph - N/A   Scattered Clouds
5:15 PM 68.0 °F 53.6 °F 60% 30.20 in 10.0 mi South 4.6 mph - N/A   Clear
5:35 PM 68.0 °F 53.6 °F 60% 30.20 in 10.0 mi Calm Calm - N/A   Clear
5:55 PM 66.2 °F 53.6 °F 64% 30.20 in 10.0 mi South 3.5 mph - N/A   Clear
6:15 PM 64.4 °F 53.6 °F 68% 30.20 in 10.0 mi South 3.5 mph - N/A   Clear
6:35 PM 64.4 °F 53.6 °F 68% 30.20 in 10.0 mi Calm Calm - N/A   Clear
6:55 PM 64.4 °F 53.6 °F 68% 30.20 in 10.0 mi Calm Calm - N/A   Clear
7:15 PM 62.6 °F 53.6 °F 72% 30.21 in 10.0 mi South 3.5 mph - N/A   Clear
7:35 PM 62.6 °F 51.8 °F 68% 30.21 in 10.0 mi Calm Calm - N/A   Clear
7:55 PM 62.6 °F 51.8 °F 68% 30.22 in 10.0 mi Calm Calm - N/A   Clear
8:15 PM 62.6 °F 51.8 °F 68% 30.21 in 10.0 mi Calm Calm - N/A   Clear
8:35 PM 60.8 °F 51.8 °F 72% 30.21 in 10.0 mi Calm Calm - N/A   Clear
8:55 PM 59.0 °F 51.8 °F 77% 30.21 in 7.0 mi Calm Calm - N/A   Clear
9:15 PM 59.0 °F 51.8 °F 77% 30.21 in 10.0 mi Calm Calm - N/A   Clear
9:35 PM 59.0 °F 51.8 °F 77% 30.21 in 10.0 mi Calm Calm - N/A   Clear
9:55 PM 57.2 °F 51.8 °F 82% 30.21 in 10.0 mi Calm Calm - N/A   Clear
10:15 PM 55.4 °F 51.8 °F 88% 30.21 in 10.0 mi SE 3.5 mph - N/A   Clear
10:35 PM 59.0 °F 51.8 °F 77% 30.21 in 10.0 mi SE 3.5 mph - N/A   Clear
10:55 PM 59.0 °F 51.8 °F 77% 30.21 in 10.0 mi Calm Calm - N/A   Clear
11:15 PM 59.0 °F 51.8 °F 77% 30.20 in 10.0 mi Calm Calm - N/A   Clear
11:35 PM 57.2 °F 51.8 °F 82% 30.20 in 10.0 mi SE 3.5 mph - N/A   Clear
11:55 PM 55.4 °F 51.8 °F 88% 30.20 in 10.0 mi SE 3.5 mph - N/A   Clear